This demonstration page uses our WeatherBlox Daily Observations layout. Learn more.

Left ArrowRight Arrow

34.74481, -87.66753

Hourly Observations for January 24, 2020

Temp ( °F °C ) Dew Point ( °F °C ) Humidity (%) Winds ( mph kmh ) Pressure ( in mb ) Visibility ( mi km ) Precip ( " mm )
12:35 am 00:35 Cloudy with Mist and Fog 47 8.3 45 7.2 93 93 SSE 5 7 29.92 1013 3 4 0.02 0.51
12:46 am 00:46 Cloudy with Mist and Fog 47 8.3 45 7.2 93 93 S 6 9 29.92 1013 3 5 0.02 0.51
12:53 am 00:53 Cloudy with Mist and Fog 47 8.3 46 7.8 97 97 S 5 7 29.91 1013 3 5 0.02 0.51
1:29 am 01:29 Cloudy with Light Rain 48 8.9 46 7.8 93 93 SSW 7 11 29.92 1013 3 4 0.00 0.00
1:37 am 01:37 Cloudy with Light Rain 48 8.9 46 7.8 93 93 SSW 7 11 29.92 1013 3 5 0.01 0.25
1:53 am 01:53 Cloudy with Light Rain 48 8.9 46 7.8 93 93 S 7 11 29.90 1013 4 6 0.02 0.51
2:02 am 02:02 Cloudy with Mist and Fog 48 8.9 47 8.3 96 96 S 7 11 29.91 1013 5 8 0.00 0.00
2:45 am 02:45 Cloudy 48 8.9 46 7.8 93 93 SSW 7 11 29.92 1013 10 16 0.00 0.00
2:53 am 02:53 Cloudy 48 8.9 46 7.8 93 93 SW 6 9 29.90 1013 10 16 0.00 0.00
3:53 am 03:53 Cloudy 48 8.9 45 7.2 89 89 WSW 8 13 29.90 1013 9 14 0.00 0.00
4:10 am 04:10 Cloudy 47 8.3 45 7.2 93 93 WSW 8 13 29.91 1013 7 11 0.00 0.00
4:30 am 04:30 Cloudy 47 8.3 45 7.2 93 93 WSW 7 11 29.91 1013 9 14 0.00 0.00
4:42 am 04:42 Cloudy 47 8.3 45 7.2 93 93 WSW 7 11 29.91 1013 10 16 0.00 0.00
4:53 am 04:53 Cloudy 47 8.3 44 6.7 90 90 W 8 13 29.90 1013 10 16 0.00 0.00
5:53 am 05:53 Cloudy 46 7.8 42 5.6 86 86 W 9 15 29.92 1013 10 16 0.00 0.00
6:43 am 06:43 Cloudy 45 7.2 42 5.6 90 90 W 9 15 29.94 1014 10 16 0.00 0.00
6:53 am 06:53 Cloudy 45 7.2 42 5.6 90 90 WSW 10 17 29.94 1014 10 16 0.00 0.00
7:20 am 07:20 Cloudy 45 7.2 41 5 86 86 WSW 10 17 29.96 1015 10 16 0.00 0.00
7:53 am 07:53 Cloudy 44 6.7 39 3.9 83 83 W 15 24 29.96 1015 10 16 0.00 0.00
8:50 am 08:50 Cloudy 45 7 39 4 81 81 WSW 8 13 29.98 1015 10 16 0.00 0.00
8:53 am 08:53 Cloudy 44 6.7 40 4.4 85 85 WSW 7 11 29.97 1015 10 16 0.00 0.00
9:39 am 09:39 Mostly Cloudy 45 7.2 40 4.4 83 83 SW 9 15 29.99 1016 10 16 0.00 0.00
9:53 am 09:53 Mostly Cloudy 46 7.8 40 4.4 79 79 SSW 12 19 29.97 1015 10 16 0.00 0.00
10:41 am 10:41 Mostly Cloudy 49 9.4 41 5 74 74 SW 13 20 29.98 1015 10 16 0.00 0.00
10:53 am 10:53 Mostly Cloudy 50 10 41 5 71 71 WSW 13 20 29.96 1015 10 16 0.00 0.00
11:53 am 11:53 Cloudy 49 9.4 39 3.9 69 69 WSW 14 22 29.94 1014 10 16 0.00 0.00
12:36 pm 12:36 Cloudy 48 8.9 39 3.9 71 71 W 14 22 29.95 1014 10 16 0.00 0.00
12:48 pm 12:48 Cloudy 48 9 37 3 66 66 WSW 18 30 29.95 1014 10 16 0.00 0.00
12:53 pm 12:53 Cloudy 48 8.9 38 3.3 68 68 WSW 17 28 29.93 1014 10 16 0.00 0.00
1:08 pm 13:08 Cloudy 47 8.3 37 2.8 69 69 WSW 12 19 29.94 1014 10 16 0.00 0.00
1:45 pm 13:45 Cloudy 47 8.3 38 3.3 71 71 SW 16 26 29.94 1014 10 16 0.00 0.00
1:53 pm 13:53 Cloudy 47 8.3 38 3.3 71 71 WSW 14 22 29.93 1014 10 16 0.00 0.00
2:03 pm 14:03 Cloudy 47 8.3 38 3.3 71 71 SW 13 20 29.94 1014 10 16 0.00 0.00
2:53 pm 14:53 Cloudy 46 7.8 39 3.9 77 77 WSW 14 22 29.94 1014 10 16 0.00 0.00
3:24 pm 15:24 Cloudy 47 8.3 38 3.3 71 71 W 12 19 29.96 1015 10 16 0.00 0.00
3:53 pm 15:53 Cloudy 47 8.3 37 2.8 69 69 WSW 10 17 29.95 1014 10 16 0.00 0.00
4:32 pm 16:32 Cloudy 46 7.8 36 2.2 68 68 W 14 22 29.98 1015 10 16 0.00 0.00
4:53 pm 16:53 Cloudy 45 7.2 36 2.2 71 71 W 20 31 29.97 1015 10 16 0.00 0.00
5:18 pm 17:18 Cloudy 45 7.2 34 1.1 66 66 W 18 30 30.00 1016 10 16 0.00 0.00
5:53 pm 17:53 Cloudy 44 6.7 35 1.7 71 71 WSW 12 19 30.00 1016 10 16 0.00 0.00
6:53 pm 18:53 Cloudy 43 6.1 35 1.7 74 74 W 10 17 30.03 1017 10 16 0.00 0.00
7:53 pm 19:53 Cloudy 43 6.1 35 1.7 74 74 WNW 15 24 30.05 1018 10 16 0.00 0.00
8:24 pm 20:24 Cloudy 42 5.6 35 1.7 76 76 W 12 19 30.07 1018 10 16 0.00 0.00
8:53 pm 20:53 Cloudy 41 5 34 1.1 76 76 W 9 15 30.05 1018 10 16 0.00 0.00
9:53 pm 21:53 Cloudy 41 5 35 1.7 79 79 W 12 19 30.06 1018 10 16 0.00 0.00
10:21 pm 22:21 Cloudy with Light Rain 40 4.4 34 1.1 79 79 W 12 19 30.08 1019 10 16 0.01 0.25
10:37 pm 22:37 Cloudy 40 4.4 34 1.1 79 79 W 7 11 30.08 1019 10 16 0.01 0.25
10:53 pm 22:53 Cloudy 39 3.9 35 1.7 86 86 WSW 5 7 30.06 1018 10 16 0.01 0.25
11:53 pm 23:53 Cloudy 40 4.4 35 1.7 83 83 W 7 11 30.06 1018 10 16 0.00 0.00

Powered by AerisWeather